Weather History for Red Wing, MN

Change the Weather History Date:

Tuesday, November 6, 2012

  Actual Average Record
Temperature  
Mean Temperature 42 °F -  
Max Temperature 44 °F 45 °F 73 °F (2004)
Min Temperature 39 °F 29 °F 17 °F (2003)
Degree Days  
Heating Degree Days 24    
Moisture  
Dew Point 37 °F    
Average Humidity 86    
Maximum Humidity 93    
Minimum Humidity 70    
Precipitation  
Precipitation 0.22 in - - ()
Sea Level Pressure  
Sea Level Pressure 29.86 in    
Wind  
Wind Speed 8 mph (West)    
Max Wind Speed 12 mph    
Max Gust Speed 18 mph    
Visibility 7 miles    
Events Rain    
Averages and records for this station are not official NWS values.
T = Trace of Precipitation, MM = Missing Value Source: NWS Daily Summary

Daily Weather History Graph

Daily Weather History Graph

Search for Another Location

Airport:

Trip Planner

Search our weather history database for the weather conditions in past years. The results will help you decide how hot, cold, wet, or windy it might be!

Date:

Astronomy

Nov. 06, 2012 Rise Set
Actual Time 6:55 AM CST 4:51 PM CST
Civil Twilight 6:24 AM CST 5:22 PM CST
Nautical Twilight 5:49 AM CST 5:57 PM CST
Astronomical Twilight 5:15 AM CST 6:31 PM CST
Moon 11:34 PM CST (11/6) 12:45 PM CST (11/6)
Length of Visible Light 10h 58m
Length of Day
9h 56m
Waning Gibbous, 53% of the Moon is Illuminated
Nov 6
Waning Gibbous
Nov 6
Last Quarter
Nov 13
New
Nov 20
First Quarter
Nov 28
Full

Hourly Weather History & Observations

Time (CST) Temp. Windchill Dew Point Humidity Pressure Visibility Wind Dir Wind Speed Gust Speed Precip Events Conditions
12:15 AM 42.8 °F 38.0 °F 33.8 °F 70% 29.98 in 10.0 mi SSW 8.1 mph - N/A   Scattered Clouds
12:35 AM 42.8 °F 38.0 °F 33.8 °F 70% 29.97 in 10.0 mi SSW 8.1 mph - N/A   Mostly Cloudy
12:54 AM 42.8 °F 38.0 °F 33.8 °F 70% 29.96 in 10.0 mi South 8.1 mph - N/A   Overcast
1:15 AM 42.8 °F 38.6 °F 33.8 °F 70% 29.96 in 10.0 mi SSW 6.9 mph - N/A   Overcast
1:35 AM 42.8 °F 37.0 °F 33.8 °F 70% 29.94 in 7.0 mi South 10.4 mph - N/A   Overcast
1:55 AM 42.8 °F 37.5 °F 35.6 °F 76% 29.94 in 7.0 mi SSW 9.2 mph - N/A   Overcast
2:15 AM 42.8 °F 37.0 °F 35.6 °F 76% 29.93 in 7.0 mi South 10.4 mph 16.1 mph N/A   Overcast
2:29 AM 42.8 °F 37.5 °F 35.6 °F 76% 29.92 in 7.0 mi SSW 9.2 mph - N/A Rain Light Rain
2:55 AM 41.0 °F 34.7 °F 35.6 °F 81% 29.91 in 5.0 mi SSW 10.4 mph 18.4 mph 0.02 in Rain Light Rain
3:15 AM 39.2 °F 33.6 °F 35.6 °F 87% 29.90 in 4.0 mi SSW 8.1 mph 17.3 mph 0.02 in Rain Rain
3:35 AM 39.2 °F 33.0 °F 35.6 °F 87% 29.89 in 4.0 mi SSW 9.2 mph 18.4 mph 0.06 in Rain Rain
3:55 AM 39.2 °F 34.2 °F 35.6 °F 87% 29.88 in 4.0 mi SSW 6.9 mph - 0.07 in Rain Rain
4:15 AM 39.2 °F 34.2 °F 37.4 °F 93% 29.87 in 3.0 mi SSW 6.9 mph - N/A Rain Rain
4:35 AM 39.2 °F 32.5 °F 37.4 °F 93% 29.86 in 4.0 mi SSW 10.4 mph - 0.02 in Rain Light Rain
4:55 AM 39.2 °F 33.6 °F 37.4 °F 93% 29.84 in 5.0 mi South 8.1 mph 17.3 mph 0.03 in   Light Drizzle
5:15 AM 39.2 °F 33.6 °F 37.4 °F 93% 29.83 in 3.0 mi South 8.1 mph - N/A Rain Light Rain
5:35 AM 39.2 °F 34.2 °F 37.4 °F 93% 29.83 in 3.0 mi South 6.9 mph - 0.01 in Rain Light Rain
5:55 AM 39.2 °F 33.6 °F 37.4 °F 93% 29.82 in 2.5 mi South 8.1 mph - 0.03 in Rain Rain
6:15 AM 39.2 °F 32.5 °F 37.4 °F 93% 29.81 in 4.0 mi SSW 10.4 mph - 0.02 in Rain Light Rain
6:35 AM 39.2 °F 34.2 °F 37.4 °F 93% 29.81 in 4.0 mi SSW 6.9 mph - 0.03 in Rain Light Rain
6:55 AM 39.2 °F 34.2 °F 37.4 °F 93% 29.80 in 3.0 mi SSW 6.9 mph - 0.03 in Rain Rain
7:15 AM 39.2 °F 35.0 °F 37.4 °F 93% 29.80 in 3.0 mi SSW 5.8 mph - N/A   Drizzle
7:35 AM 41.0 °F 36.4 °F 37.4 °F 87% 29.79 in 4.0 mi SSW 6.9 mph - N/A   Drizzle
7:55 AM 41.0 °F 35.2 °F 39.2 °F 93% 29.79 in 4.0 mi SW 9.2 mph - N/A   Drizzle
8:15 AM 41.0 °F 34.3 °F 39.2 °F 93% 29.79 in 1.8 mi SW 11.5 mph 16.1 mph N/A   Light Drizzle
8:35 AM 41.0 °F 36.4 °F 39.2 °F 93% 29.79 in 1.8 mi WSW 6.9 mph - N/A   Light Drizzle
8:55 AM 41.0 °F 35.2 °F 39.2 °F 93% 29.79 in 1.2 mi WSW 9.2 mph - N/A   Heavy Drizzle
9:15 AM 41.0 °F 35.8 °F 39.2 °F 93% 29.79 in 1.2 mi West 8.1 mph - 0.01 in   Drizzle
9:35 AM 41.0 °F 35.8 °F 39.2 °F 93% 29.79 in 1.0 mi West 8.1 mph - 0.01 in   Drizzle
9:55 AM 41.0 °F 35.2 °F 39.2 °F 93% 29.79 in 1.5 mi West 9.2 mph - 0.01 in   Light Drizzle
10:15 AM 41.0 °F 36.4 °F 39.2 °F 93% 29.79 in 3.0 mi NW 6.9 mph - N/A   Light Drizzle
10:35 AM 42.8 °F 38.6 °F 39.2 °F 87% 29.79 in 4.0 mi WNW 6.9 mph - N/A   Overcast
10:55 AM 42.8 °F 37.0 °F 39.2 °F 87% 29.80 in 10.0 mi NW 10.4 mph 16.1 mph N/A   Overcast
11:15 AM 42.8 °F 38.0 °F 37.4 °F 81% 29.80 in 10.0 mi NW 8.1 mph - N/A   Overcast
11:35 AM 42.8 °F 37.5 °F 35.6 °F 76% 29.79 in 10.0 mi NW 9.2 mph - N/A   Overcast
11:55 AM 42.8 °F 38.6 °F 35.6 °F 76% 29.79 in 10.0 mi NNW 6.9 mph - N/A   Overcast
12:15 PM 42.8 °F 39.3 °F 35.6 °F 76% 29.79 in 10.0 mi NNW 5.8 mph - N/A   Overcast
12:35 PM 42.8 °F 39.3 °F 35.6 °F 76% 29.79 in 10.0 mi NNW 5.8 mph - N/A   Overcast
12:55 PM 44.6 °F 41.4 °F 37.4 °F 76% 29.79 in 10.0 mi NW 5.8 mph - N/A   Overcast
1:15 PM 44.6 °F 40.2 °F 37.4 °F 76% 29.79 in 10.0 mi WNW 8.1 mph - N/A   Overcast
1:35 PM 44.6 °F 39.7 °F 37.4 °F 76% 29.79 in 10.0 mi WNW 9.2 mph - N/A   Overcast
1:55 PM 44.6 °F 39.7 °F 35.6 °F 71% 29.79 in 10.0 mi NW 9.2 mph - N/A   Overcast
2:15 PM 44.6 °F 40.2 °F 35.6 °F 71% 29.80 in 10.0 mi WNW 8.1 mph - N/A   Mostly Cloudy
2:35 PM 44.6 °F 40.2 °F 35.6 °F 71% 29.80 in 10.0 mi WNW 8.1 mph - N/A   Overcast
2:55 PM 44.6 °F 40.7 °F 35.6 °F 71% 29.81 in 10.0 mi WNW 6.9 mph - N/A   Overcast
3:15 PM 42.8 °F 37.5 °F 37.4 °F 81% 29.82 in 7.0 mi WNW 9.2 mph - N/A Rain Light Rain
3:35 PM 42.8 °F 39.3 °F 37.4 °F 81% 29.82 in 10.0 mi WNW 5.8 mph - N/A   Overcast
4:15 PM 39.2 °F 35.0 °F 37.4 °F 93% 29.84 in 10.0 mi WNW 5.8 mph - 0.03 in Rain Light Rain
4:35 PM 39.2 °F 35.9 °F 37.4 °F 93% 29.84 in 10.0 mi WNW 4.6 mph - 0.03 in   Overcast
4:55 PM 39.2 °F 35.9 °F 37.4 °F 93% 29.84 in 10.0 mi WNW 4.6 mph - 0.03 in   Overcast
5:15 PM 39.2 °F 35.9 °F 37.4 °F 93% 29.84 in 10.0 mi WNW 4.6 mph - N/A   Overcast
5:35 PM 39.2 °F 35.0 °F 37.4 °F 93% 29.85 in 10.0 mi WNW 5.8 mph - N/A   Overcast
5:55 PM 39.2 °F 33.6 °F 37.4 °F 93% 29.86 in 4.0 mi NW 8.1 mph - N/A Rain Heavy Rain
6:15 PM 39.2 °F 35.0 °F 37.4 °F 93% 29.86 in 10.0 mi NW 5.8 mph - N/A   Overcast
6:35 PM 39.2 °F 33.6 °F 37.4 °F 93% 29.87 in 7.0 mi NW 8.1 mph - N/A   Overcast
6:55 PM 39.2 °F 34.2 °F 37.4 °F 93% 29.88 in 3.0 mi NW 6.9 mph - N/A   Drizzle
7:15 PM 39.2 °F 34.2 °F 37.4 °F 93% 29.88 in 3.0 mi NNW 6.9 mph - N/A   Drizzle
7:35 PM 39.2 °F 33.6 °F 37.4 °F 93% 29.88 in 4.0 mi NNW 8.1 mph - N/A   Drizzle
7:55 PM 39.2 °F 35.0 °F 37.4 °F 93% 29.89 in 5.0 mi NNW 5.8 mph - N/A   Light Drizzle
8:15 PM 39.2 °F 33.0 °F 35.6 °F 87% 29.89 in 10.0 mi NNW 9.2 mph - N/A Rain Light Rain
8:35 PM 39.2 °F 34.2 °F 35.6 °F 87% 29.90 in 10.0 mi NNW 6.9 mph - N/A   Overcast
8:55 PM 39.2 °F 35.0 °F 35.6 °F 87% 29.91 in 10.0 mi NNW 5.8 mph - N/A   Overcast
9:15 PM 39.2 °F 35.0 °F 35.6 °F 87% 29.91 in 10.0 mi NW 5.8 mph - N/A   Overcast
9:35 PM 39.2 °F 35.0 °F 35.6 °F 87% 29.92 in 10.0 mi NNW 5.8 mph - N/A   Overcast
9:55 PM 39.2 °F 35.9 °F 35.6 °F 87% 29.92 in 10.0 mi NNW 4.6 mph - N/A   Overcast
10:15 PM 39.2 °F 35.9 °F 35.6 °F 87% 29.93 in 10.0 mi NNW 4.6 mph - N/A   Overcast
10:35 PM 39.2 °F 35.0 °F 35.6 °F 87% 29.93 in 10.0 mi NNW 5.8 mph - N/A   Overcast
10:55 PM 39.2 °F 37.0 °F 35.6 °F 87% 29.94 in 10.0 mi NNW 3.5 mph - N/A   Overcast
11:15 PM 39.2 °F 35.9 °F 35.6 °F 87% 29.95 in 10.0 mi NNW 4.6 mph - N/A   Overcast
11:35 PM 39.2 °F 35.0 °F 35.6 °F 87% 29.96 in 10.0 mi NW 5.8 mph - N/A   Overcast
11:55 PM 39.2 °F - 35.6 °F 87% 29.97 in 10.0 mi Calm Calm - N/A   Overcast